Aérodrome :
LOGIN :

S'inscrire | Disclaimer

   EN    FR    IT 

 










Légende :    VFR   VFR Marginal   IFR   IFR Intensif   IFR Très Intensif
Visi : 
Plafond : 
>= 8 km
>= 3000ft
5 à 8 km
1000 à 3000 ft
1500m à 5 km
500 à 1000 ft
800 à 1500m
200 à 500 ft
< 800m
< 200 ft
Symboles :   Orages  Brouillard  Fortes neiges  Fortes précipitations  Vent > 20 kt
SIGMETs :   Divers  Orages  Givrage  Turbulence  Onde Orograph.  Cendres Volcan.







- Altitude de l'aérodrome : 628 ft
- Code IATA : CMR
- Voir les cartes d'approche


LFGA - Colmar-Houssen

DERNIER METAR :
  • 211200Z AUTO 25012G23KT 220V280 CAVOK 26/11 Q1012

METARs EXPIRÉS :
  • 211130Z AUTO 24012KT CAVOK 27/12 Q1012
  • 211100Z AUTO 24015KT CAVOK 27/13 Q1012
  • 211030Z AUTO 23008KT CAVOK 26/14 Q1012
  • 211000Z AUTO 22012KT CAVOK 25/14 Q1012
  • 210930Z AUTO 18007KT 150V210 CAVOK 24/14 Q1012
  • 210900Z AUTO 17006KT 130V210 CAVOK 24/14 Q1012

TAF N/A
Pas de NOTAMs connus pour ce terrain.



MET'MAP, la Météo Aéronautique d'un coup d'oeil ! - Copyright ORBIFLY Décembre 2007 - Disclaimer

ORBIFLY MET'MAP TEAM :

Programmation & Développement : Alexandra Zaïnal
Conception & Développement : Baudouin d'Aumeries
Co-Programmation & Développement : Marc-Olivier Méhu
Soutien technique & logistique : Manuel Goepfert

Contact : metmap@orbifly.com




SOURCES & CREDITS :

   NOAA